| time (UTC) | temp C | wind direction | speed KPH | gust KPH | rain 1hr cm | rain 24hr cm | rain mn cm | humidity % | barometer mb |
| 20260902195505 | 32 | 215 | 8.0 | 16.1 | 0.00 | 0.00 | 0.00 | 60 | 1014.3 |
| 20260902195005 | 32 | 234 | 6.4 | 14.5 | 0.00 | 0.00 | 0.00 | 59 | 1014.3 |
| 20260902194004 | 32 | 233 | 4.8 | 16.1 | 0.00 | 0.00 | 0.00 | 60 | 1014.5 |
| 20260902193504 | 32 | 266 | 4.8 | 9.7 | 0.00 | 0.00 | 0.00 | 60 | 1014.5 |
| 20260902193004 | 32 | 239 | 6.4 | 14.5 | 0.00 | 0.00 | 0.00 | 61 | 1014.6 |
| 20260902192505 | 32 | 228 | 3.2 | 16.1 | 0.00 | 0.00 | 0.00 | 61 | 1014.6 |
| 20260902191505 | 33 | 230 | 4.8 | 11.3 | 0.00 | 0.00 | 0.00 | 61 | 1014.7 |
| 20260902191005 | 32 | 242 | 3.2 | 4.8 | 0.00 | 0.00 | 0.00 | 62 | 1014.8 |
| 20260902185505 | 32 | 211 | 4.8 | 14.5 | 0.00 | 0.00 | 0.00 | 60 | 1014.8 |
| 20260902185005 | 32 | 174 | 4.8 | 11.3 | 0.00 | 0.00 | 0.00 | 61 | 1014.9 |
| 20260902184505 | 32 | 241 | 3.2 | 11.3 | 0.00 | 0.00 | 0.00 | 61 | 1015.0 |
| 20260902183505 | 32 | 205 | 8.0 | 19.3 | 0.00 | 0.00 | 0.00 | 61 | 1015.0 |
| 20260902183005 | 32 | 226 | 4.8 | 9.7 | 0.00 | 0.00 | 0.00 | 60 | 1014.9 |
| 20260902182004 | 32 | 162 | 4.8 | 16.1 | 0.00 | 0.00 | 0.00 | 62 | 1014.9 |
| 20260902181504 | 32 | 231 | 9.7 | 19.3 | 0.00 | 0.00 | 0.00 | 61 | 1014.9 |
| 20260902181005 | 32 | 195 | 4.8 | 14.5 | 0.00 | 0.00 | 0.00 | 62 | 1015.0 |
| 20260902180505 | 32 | 245 | 6.4 | 20.9 | 0.00 | 0.00 | 0.00 | 61 | 1015.1 |
| 20260902175505 | 32 | 187 | 4.8 | 19.3 | 0.00 | 0.00 | 0.00 | 63 | 1015.2 |
| 20260902175004 | 32 | 183 | 3.2 | 8.0 | 0.00 | 0.00 | 0.00 | 63 | 1015.2 |
| 20260902174505 | 32 | 219 | 3.2 | 12.9 | 0.00 | 0.00 | 0.00 | 63 | 1015.3 |
| 20260902174005 | 32 | 194 | 4.8 | 11.3 | 0.00 | 0.00 | 0.00 | 62 | 1015.4 |
| 20260902173505 | 32 | 237 | 6.4 | 12.9 | 0.00 | 0.00 | 0.00 | 61 | 1015.4 |
| 20260902173005 | 32 | 224 | 3.2 | 9.7 | 0.00 | 0.00 | 0.00 | 63 | 1015.5 |
| 20260902172505 | 32 | 215 | 3.2 | 16.1 | 0.00 | 0.00 | 0.00 | 62 | 1015.5 |
| 20260902172005 | 32 | 230 | 4.8 | 12.9 | 0.00 | 0.00 | 0.00 | 63 | 1015.6 |
| 20260902171505 | 32 | 179 | 3.2 | 11.3 | 0.00 | 0.00 | 0.00 | 63 | 1015.6 |
| 20260902171005 | 31 | 280 | 4.8 | 12.9 | 0.00 | 0.00 | 0.00 | 63 | 1015.7 |
| 20260902170505 | 31 | 247 | 6.4 | 14.5 | 0.00 | 0.00 | 0.00 | 63 | 1015.7 |
| 20260902170005 | 31 | 232 | 4.8 | 11.3 | 0.00 | 0.00 | 0.00 | 63 | 1015.7 |
| 20260902165505 | 31 | 242 | 4.8 | 14.5 | 0.00 | 0.00 | 0.00 | 63 | 1015.7 |
| 20260902165005 | 31 | 238 | 6.4 | 14.5 | 0.00 | 0.00 | 0.00 | 63 | 1015.8 |
| 20260902163505 | 31 | 250 | 4.8 | 11.3 | 0.00 | 0.00 | 0.00 | 63 | 1015.8 |
| 20260902162505 | 31 | 238 | 4.8 | 12.9 | 0.00 | 0.00 | 0.00 | 63 | 1015.9 |
| 20260902162005 | 31 | 221 | 4.8 | 11.3 | 0.00 | 0.00 | 0.00 | 63 | 1015.9 |
| 20260902161505 | 31 | 255 | 8.0 | 16.1 | 0.00 | 0.00 | 0.00 | 63 | 1015.9 |
| 20260902161005 | 31 | 208 | 3.2 | 12.9 | 0.00 | 0.00 | 0.00 | 63 | 1015.8 |
| 20260902160505 | 31 | 293 | 3.2 | 9.7 | 0.00 | 0.00 | 0.00 | 63 | 1015.8 |
| 20260902155505 | 31 | 216 | 3.2 | 9.7 | 0.00 | 0.00 | 0.00 | 63 | 1015.9 |
| 20260902155005 | 31 | 224 | 4.8 | 12.9 | 0.00 | 0.00 | 0.00 | 62 | 1015.9 |
| 20260902154505 | 30 | 232 | 4.8 | 14.5 | 0.00 | 0.00 | 0.00 | 61 | 1015.9 |
| 20260902154005 | 30 | 249 | 4.8 | 11.3 | 0.00 | 0.00 | 0.00 | 62 | 1015.9 |
| 20260902153505 | 30 | 263 | 4.8 | 11.3 | 0.00 | 0.00 | 0.00 | 60 | 1016.0 |
| 20260902153005 | 30 | 235 | 4.8 | 11.3 | 0.00 | 0.00 | 0.00 | 60 | 1016.0 |
| 20260902152504 | 30 | 278 | 3.2 | 4.8 | 0.00 | 0.00 | 0.00 | 58 | 1016.1 |
| 20260902152004 | 30 | 221 | 3.2 | 9.7 | 0.00 | 0.00 | 0.00 | 58 | 1016.1 |
| 20260902151505 | 30 | 266 | 3.2 | 9.7 | 0.00 | 0.00 | 0.00 | 57 | 1016.2 |
| 20260902151004 | 30 | 261 | 4.8 | 11.3 | 0.00 | 0.00 | 0.00 | 59 | 1016.1 |
| 20260902150504 | 30 | 264 | 4.8 | 14.5 | 0.00 | 0.00 | 0.00 | 55 | 1016.1 |
| 20260902150005 | 30 | 208 | 3.2 | 11.3 | 0.00 | 0.00 | 0.00 | 54 | 1016.1 |
| 20260902145505 | 29 | 152 | 3.2 | 4.8 | 0.00 | 0.00 | 0.00 | 52 | 1016.1 |
| 20260902145005 | 29 | 295 | 3.2 | 8.0 | 0.00 | 0.00 | 0.00 | 54 | 1016.2 |
| 20260902144505 | 29 | 243 | 3.2 | 4.8 | 0.00 | 0.00 | 0.00 | 52 | 1016.3 |
| 20260902143504 | 28 | 259 | 4.8 | 14.5 | 0.00 | 0.00 | 0.00 | 52 | 1016.3 |
| 20260902142505 | 28 | 279 | 4.8 | 11.3 | 0.00 | 0.00 | 0.00 | 50 | 1016.2 |
| 20260902141504 | 28 | 236 | 1.6 | 11.3 | 0.00 | 0.00 | 0.00 | 43 | 1016.2 |
| 20260902140005 | 28 | 234 | 4.8 | 4.8 | 0.00 | 0.00 | 0.00 | 38 | 1016.2 |
| 20260902135505 | 27 | 207 | 3.2 | 4.8 | 0.00 | 0.00 | 0.00 | 38 | 1016.3 |
| 20260902135005 | 27 | 240 | 3.2 | 9.7 | 0.00 | 0.00 | 0.00 | 38 | 1016.3 |
| 20260902134504 | 27 | 239 | 4.8 | 11.3 | 0.00 | 0.00 | 0.00 | 37 | 1016.4 |
| 20260902134005 | 27 | 241 | 4.8 | 12.9 | 0.00 | 0.00 | 0.00 | 37 | 1016.4 |
| 20260902133504 | 27 | 218 | 3.2 | 14.5 | 0.00 | 0.00 | 0.00 | 35 | 1016.5 |
| 20260902133004 | 27 | 263 | 3.2 | 4.8 | 0.00 | 0.00 | 0.00 | 30 | 1016.5 |
| 20260902132505 | 26 | 259 | 1.6 | 9.7 | 0.00 | 0.00 | 0.00 | 23 | 1016.4 |
| 20260902131505 | 26 | 234 | 1.6 | 4.8 | 0.00 | 0.00 | 0.00 | 20 | 1016.5 |
| 20260902131005 | 26 | 264 | 3.2 | 4.8 | 0.00 | 0.00 | 0.00 | 18 | 1016.4 |
| 20260902130505 | 26 | 262 | 1.6 | 12.9 | 0.00 | 0.00 | 0.00 | 12 | 1016.4 |
| 20260902130004 | 25 | 246 | 4.8 | 8.0 | 0.00 | 0.00 | 0.00 | 14 | 1016.5 |
| 20260902125504 | 25 | 225 | 1.6 | 4.8 | 0.00 | 0.00 | 0.00 | 6 | 1016.5 |
| 20260902125005 | 25 | 267 | 3.2 | 4.8 | 0.00 | 0.00 | 0.00 | 6 | 1016.4 |
| 20260902124504 | 25 | 235 | 0.0 | 1.6 | 0.00 | 0.00 | 0.00 | 3 | 1016.3 |
| 20260902124005 | 25 | 235 | 0.0 | 3.2 | 0.00 | 0.00 | 0.00 | 3 | 1016.3 |
| 20260902123504 | 25 | 235 | 0.0 | 0.0 | 0.00 | 0.00 | 0.00 | 3 | 1016.3 |
| 20260902123004 | 24 | 235 | 0.0 | 1.6 | 0.00 | 0.00 | 0.00 | 3 | 1016.4 |
| 20260902122505 | 24 | 235 | 1.6 | 4.8 | 0.00 | 0.00 | 0.00 | 3 | 1016.4 |
| 20260902122005 | 24 | 248 | 0.0 | 3.2 | 0.00 | 0.00 | 0.00 | 3 | 1016.2 |
| 20260902121504 | 23 | 248 | 0.0 | 3.2 | 0.00 | 0.00 | 0.00 | 3 | 1016.2 |
| 20260902121005 | 23 | 248 | 0.0 | 3.2 | 0.00 | 0.00 | 0.00 | 3 | 1016.2 |
| 20260902120505 | 23 | 248 | 0.0 | 0.0 | 0.00 | 0.00 | 0.00 | 3 | 1016.1 |
| 20260902120005 | 23 | 248 | 1.6 | 3.2 | 0.00 | 0.00 | 0.00 | 3 | 1016.0 |
| 20260902115506 | 23 | 248 | 0.0 | 3.2 | 0.00 | 0.00 | 0.00 | 3 | 1016.0 |
| 20260902115004 | 23 | 248 | 0.0 | 3.2 | 0.00 | 0.00 | 0.00 | 3 | 1016.0 |
| 20260902114504 | 23 | 252 | 1.6 | 3.2 | 0.00 | 0.00 | 0.00 | 3 | 1015.9 |
| 20260902114004 | 22 | 257 | 3.2 | 4.8 | 0.00 | 0.00 | 0.00 | 3 | 1015.8 |
| 20260902113505 | 22 | 207 | 0.0 | 3.2 | 0.00 | 0.00 | 0.00 | 3 | 1015.7 |
| 20260902112505 | 22 | 207 | 1.6 | 3.2 | 0.00 | 0.00 | 0.00 | 3 | 1015.7 |
| 20260902112004 | 22 | 207 | 0.0 | 3.2 | 0.00 | 0.00 | 0.00 | 3 | 1015.7 |
| 20260902111504 | 22 | 207 | 0.0 | 1.6 | 0.00 | 0.00 | 0.00 | 3 | 1015.6 |
| 20260902111005 | 22 | 207 | 0.0 | 1.6 | 0.00 | 0.00 | 0.00 | 3 | 1015.5 |
| 20260902110505 | 22 | 207 | 0.0 | 1.6 | 0.00 | 0.00 | 0.00 | 3 | 1015.5 |
| 20260902105505 | 22 | 207 | 0.0 | 3.2 | 0.00 | 0.00 | 0.00 | 3 | 1015.5 |
| 20260902105005 | 22 | 207 | 0.0 | 3.2 | 0.00 | 0.00 | 0.00 | 3 | 1015.5 |
| 20260902104505 | 22 | 207 | 1.6 | 4.8 | 0.00 | 0.00 | 0.00 | 3 | 1015.5 |
| 20260902104004 | 22 | 201 | 0.0 | 3.2 | 0.00 | 0.00 | 0.00 | 3 | 1015.5 |
| 20260902103505 | 22 | 201 | 0.0 | 3.2 | 0.00 | 0.00 | 0.00 | 3 | 1015.5 |
| 20260902103005 | 22 | 201 | 1.6 | 3.2 | 0.00 | 0.00 | 0.00 | 3 | 1015.5 |
| 20260902102505 | 22 | 201 | 1.6 | 3.2 | 0.00 | 0.00 | 0.00 | 3 | 1015.4 |
| 20260902101005 | 22 | 201 | 0.0 | 4.8 | 0.00 | 0.00 | 0.00 | 3 | 1015.4 |
| 20260902100505 | 22 | 201 | 0.0 | 3.2 | 0.00 | 0.00 | 0.00 | 3 | 1015.4 |
| 20260902095505 | 22 | 201 | 0.0 | 1.6 | 0.00 | 0.00 | 0.00 | 3 | 1015.4 |
| 20260902095005 | 22 | 201 | 0.0 | 1.6 | 0.00 | 0.00 | 0.00 | 3 | 1015.4 |
| 20260902094505 | 22 | 201 | 0.0 | 1.6 | 0.00 | 0.00 | 0.00 | 3 | 1015.3 |
| 20260902094004 | 22 | 201 | 0.0 | 3.2 | 0.00 | 0.00 | 0.00 | 3 | 1015.2 |
| 20260902093505 | 22 | 201 | 0.0 | 1.6 | 0.00 | 0.00 | 0.00 | 3 | 1015.2 |
| 20260902093005 | 21 | 201 | 0.0 | 1.6 | 0.00 | 0.00 | 0.00 | 3 | 1015.3 |
| 20260902092505 | 21 | 201 | 0.0 | 1.6 | 0.00 | 0.00 | 0.00 | 3 | 1015.3 |
| 20260902092005 | 21 | 201 | 0.0 | 3.2 | 0.00 | 0.00 | 0.00 | 3 | 1015.3 |
| 20260902091504 | 21 | 201 | 1.6 | 1.6 | 0.00 | 0.00 | 0.00 | 3 | 1015.2 |
| 20260902091005 | 21 | 201 | 0.0 | 1.6 | 0.00 | 0.00 | 0.00 | 3 | 1015.2 |
| 20260902090505 | 21 | 201 | 0.0 | 1.6 | 0.00 | 0.00 | 0.00 | 3 | 1015.2 |
| 20260902090005 | 21 | 201 | 0.0 | 1.6 | 0.00 | 0.00 | 0.00 | 3 | 1015.2 |
| 20260902085504 | 21 | 201 | 0.0 | 0.0 | 0.00 | 0.00 | 0.00 | 3 | 1015.2 |
| 20260902085005 | 21 | 201 | 1.6 | 3.2 | 0.00 | 0.00 | 0.00 | 3 | 1015.1 |
| 20260902084505 | 21 | 201 | 0.0 | 3.2 | 0.00 | 0.00 | 0.00 | 3 | 1015.1 |
| 20260902084005 | 21 | 201 | 0.0 | 3.2 | 0.00 | 0.00 | 0.00 | 3 | 1015.0 |
| 20260902082505 | 21 | 201 | 0.0 | 1.6 | 0.00 | 0.00 | 0.00 | 3 | 1014.8 |
| 20260902082005 | 21 | 201 | 0.0 | 0.0 | 0.00 | 0.00 | 0.00 | 3 | 1014.7 |
| 20260902081504 | 21 | 201 | 0.0 | 0.0 | 0.00 | 0.00 | 0.00 | 3 | 1014.8 |
| 20260902080505 | 21 | 201 | 0.0 | 1.6 | 0.00 | 0.00 | 0.00 | 3 | 1014.7 |
| 20260902075505 | 21 | 201 | 0.0 | 0.0 | 0.00 | 0.00 | 0.00 | 3 | 1014.7 |
| 20260902075005 | 21 | 201 | 0.0 | 3.2 | 0.00 | 0.00 | 0.00 | 3 | 1014.7 |
| 20260902074504 | 21 | 201 | 0.0 | 1.6 | 0.00 | 0.00 | 0.00 | 3 | 1014.7 |
| 20260902074004 | 21 | 201 | 0.0 | 1.6 | 0.00 | 0.00 | 0.00 | 3 | 1014.6 |
| 20260902073504 | 21 | 201 | 0.0 | 0.0 | 0.00 | 0.00 | 0.00 | 3 | 1014.7 |
| 20260902073005 | 21 | 201 | 1.6 | 3.2 | 0.00 | 0.00 | 0.00 | 3 | 1014.7 |
| 20260902072504 | 21 | 201 | 0.0 | 0.0 | 0.00 | 0.00 | 0.00 | 3 | 1014.6 |
| 20260902072005 | 21 | 201 | 0.0 | 0.0 | 0.00 | 0.00 | 0.00 | 3 | 1014.6 |
| 20260902071504 | 21 | 201 | 0.0 | 0.0 | 0.00 | 0.00 | 0.00 | 3 | 1014.7 |
| 20260902070504 | 21 | 201 | 0.0 | 0.0 | 0.00 | 0.00 | 0.00 | 3 | 1014.7 |
| 20260902065505 | 22 | 201 | 0.0 | 0.0 | 0.00 | 0.00 | 0.00 | 3 | 1014.7 |
| 20260902065004 | 22 | 201 | 0.0 | 0.0 | 0.00 | 0.00 | 0.00 | 3 | 1014.7 |
| 20260902064005 | 22 | 201 | 0.0 | 0.0 | 0.00 | 0.00 | 0.00 | 3 | 1014.9 |
| 20260902063004 | 22 | 201 | 0.0 | 0.0 | 0.00 | 0.00 | 0.00 | 3 | 1014.8 |
| 20260902062504 | 22 | 201 | 0.0 | 1.6 | 0.00 | 0.00 | 0.00 | 3 | 1014.9 |
| 20260902062004 | 22 | 201 | 0.0 | 0.0 | 0.00 | 0.00 | 0.00 | 3 | 1014.8 |
| 20260902061004 | 22 | 201 | 0.0 | 0.0 | 0.00 | 0.00 | 0.00 | 3 | 1014.8 |
| 20260902060505 | 22 | 201 | 0.0 | 0.0 | 0.00 | 0.00 | 0.00 | 3 | 1014.8 |
| 20260902060005 | 22 | 201 | 0.0 | 1.6 | 0.00 | 0.00 | 0.00 | 3 | 1014.8 |
| 20260902055504 | 22 | 201 | 0.0 | 0.0 | 0.00 | 0.00 | 0.00 | 3 | 1014.8 |
| 20260902055005 | 22 | 201 | 0.0 | 0.0 | 0.00 | 0.00 | 0.00 | 3 | 1014.9 |
| 20260902054005 | 22 | 201 | 0.0 | 0.0 | 0.00 | 0.00 | 0.00 | 3 | 1014.9 |
| 20260902053504 | 22 | 201 | 0.0 | 0.0 | 0.00 | 0.00 | 0.00 | 3 | 1014.9 |
| 20260902053004 | 23 | 201 | 0.0 | 0.0 | 0.00 | 0.00 | 0.00 | 3 | 1014.9 |
| 20260902052005 | 23 | 201 | 0.0 | 0.0 | 0.00 | 0.00 | 0.00 | 3 | 1014.8 |
| 20260902051505 | 23 | 201 | 0.0 | 0.0 | 0.00 | 0.00 | 0.00 | 3 | 1014.9 |
| 20260902051004 | 23 | 201 | 0.0 | 0.0 | 0.00 | 0.00 | 0.00 | 3 | 1014.9 |
| 20260902050007 | 23 | 201 | 0.0 | 0.0 | 0.00 | 0.00 | 0.00 | 3 | 1014.9 |
| 20260902045504 | 23 | 201 | 0.0 | 0.0 | 0.00 | 0.00 | 0.00 | 3 | 1014.9 |
| 20260902045004 | 23 | 201 | 0.0 | 0.0 | 0.00 | 0.00 | 0.00 | 3 | 1014.9 |
| 20260902044504 | 23 | 201 | 0.0 | 1.6 | 0.00 | 0.00 | 0.00 | 3 | 1014.9 |
| 20260902044004 | 23 | 201 | 0.0 | 1.6 | 0.00 | 0.00 | 0.00 | 3 | 1014.9 |
| 20260902043505 | 23 | 201 | 0.0 | 4.8 | 0.00 | 0.00 | 0.00 | 3 | 1014.9 |
| 20260902041505 | 24 | 201 | 0.0 | 3.2 | 0.00 | 0.00 | 0.00 | 3 | 1014.9 |
| 20260902041005 | 24 | 201 | 1.6 | 4.8 | 0.00 | 0.00 | 0.00 | 3 | 1014.9 |
| 20260902040505 | 24 | 201 | 0.0 | 1.6 | 0.00 | 0.00 | 0.00 | 3 | 1014.9 |
| 20260902040005 | 24 | 201 | 0.0 | 0.0 | 0.00 | 0.00 | 0.00 | 3 | 1015.0 |
| 20260902035004 | 24 | 201 | 0.0 | 1.6 | 0.00 | 0.00 | 0.00 | 3 | 1014.9 |
| 20260902034505 | 24 | 201 | 0.0 | 1.6 | 0.00 | 0.00 | 0.00 | 3 | 1014.9 |
| 20260902034004 | 24 | 201 | 0.0 | 1.6 | 0.00 | 0.00 | 0.00 | 3 | 1014.9 |
| 20260902033505 | 25 | 201 | 0.0 | 3.2 | 0.00 | 0.00 | 0.00 | 3 | 1014.9 |
| 20260902033004 | 25 | 201 | 0.0 | 1.6 | 0.00 | 0.00 | 0.00 | 3 | 1015.0 |
| 20260902032505 | 25 | 201 | 0.0 | 3.2 | 0.00 | 0.00 | 0.00 | 3 | 1014.9 |
| 20260902032004 | 25 | 201 | 0.0 | 1.6 | 0.00 | 0.00 | 0.00 | 3 | 1014.9 |
| 20260902031504 | 25 | 201 | 0.0 | 1.6 | 0.00 | 0.00 | 0.00 | 3 | 1015.0 |
| 20260902031005 | 25 | 201 | 0.0 | 1.6 | 0.00 | 0.00 | 0.00 | 3 | 1014.9 |
| 20260902030505 | 25 | 201 | 0.0 | 1.6 | 0.00 | 0.00 | 0.00 | 3 | 1014.9 |
| 20260902025504 | 25 | 201 | 0.0 | 1.6 | 0.00 | 0.00 | 0.00 | 3 | 1014.9 |
| 20260902024504 | 25 | 201 | 0.0 | 1.6 | 0.00 | 0.00 | 0.00 | 3 | 1014.9 |
| 20260902024005 | 25 | 201 | 0.0 | 0.0 | 0.00 | 0.00 | 0.00 | 3 | 1014.9 |
| 20260902023504 | 25 | 201 | 0.0 | 1.6 | 0.00 | 0.00 | 0.00 | 3 | 1014.8 |
| 20260902023004 | 25 | 201 | 0.0 | 1.6 | 0.00 | 0.00 | 0.00 | 3 | 1014.9 |
| 20260902022005 | 25 | 201 | 0.0 | 1.6 | 0.00 | 0.00 | 0.00 | 3 | 1014.9 |
| 20260902021504 | 25 | 201 | 0.0 | 1.6 | 0.00 | 0.00 | 0.00 | 3 | 1014.8 |
| 20260902021005 | 25 | 201 | 0.0 | 0.0 | 0.00 | 0.00 | 0.00 | 3 | 1014.9 |
| 20260902020504 | 25 | 201 | 0.0 | 3.2 | 0.00 | 0.00 | 0.00 | 3 | 1014.8 |
| 20260902020005 | 25 | 201 | 0.0 | 1.6 | 0.00 | 0.00 | 0.00 | 3 | 1014.9 |
| 20260902015504 | 25 | 201 | 0.0 | 1.6 | 0.00 | 0.00 | 0.00 | 3 | 1014.9 |
| 20260902015004 | 25 | 201 | 0.0 | 0.0 | 0.00 | 0.00 | 0.00 | 3 | 1014.8 |
| 20260902014505 | 25 | 201 | 0.0 | 0.0 | 0.00 | 0.00 | 0.00 | 3 | 1014.7 |
| 20260902013505 | 25 | 201 | 0.0 | 0.0 | 0.00 | 0.00 | 0.00 | 3 | 1014.8 |
| 20260902013004 | 25 | 201 | 0.0 | 0.0 | 0.00 | 0.00 | 0.00 | 9 | 1014.7 |
| 20260902012504 | 26 | 201 | 0.0 | 0.0 | 0.00 | 0.00 | 0.00 | 11 | 1014.6 |
| 20260902011504 | 26 | 201 | 0.0 | 0.0 | 0.00 | 0.00 | 0.00 | 15 | 1014.4 |
| 20260902010005 | 26 | 201 | 0.0 | 0.0 | 0.00 | 0.00 | 0.00 | 24 | 1014.2 |
| 20260902005505 | 26 | 201 | 0.0 | 1.6 | 0.00 | 0.00 | 0.00 | 24 | 1014.1 |
| 20260902005004 | 26 | 201 | 0.0 | 1.6 | 0.00 | 0.00 | 0.00 | 25 | 1014.1 |
| 20260902004504 | 26 | 201 | 0.0 | 0.0 | 0.00 | 0.00 | 0.00 | 26 | 1014.0 |
| 20260902003005 | 27 | 201 | 0.0 | 0.0 | 0.00 | 0.00 | 0.00 | 31 | 1013.9 |
| 20260902002004 | 27 | 201 | 0.0 | 0.0 | 0.00 | 0.00 | 0.00 | 35 | 1013.9 |
| 20260902001504 | 27 | 201 | 0.0 | 0.0 | 0.00 | 0.00 | 0.00 | 40 | 1014.0 |
| 20260902001004 | 28 | 201 | 0.0 | 0.0 | 0.00 | 0.00 | 0.00 | 41 | 1014.0 |
| 20260902000504 | 28 | 201 | 0.0 | 0.0 | 0.00 | 0.00 | 0.00 | 47 | 1014.1 |
| 20260902000005 | 28 | 201 | 0.0 | 0.0 | 0.00 | 0.00 | 0.00 | 48 | 1014.1 |
| 20260901235504 | 29 | 201 | 0.0 | 0.0 | 0.00 | 0.00 | 0.00 | 52 | 1014.1 |
| 20260901234504 | 30 | 201 | 0.0 | 0.0 | 0.00 | 0.00 | 0.00 | 59 | 1014.1 |
| 20260901234004 | 30 | 201 | 0.0 | 3.2 | 0.00 | 0.00 | 0.00 | 62 | 1014.1 |
| 20260901233504 | 30 | 201 | 0.0 | 0.0 | 0.00 | 0.00 | 0.00 | 62 | 1014.2 |
| 20260901233005 | 31 | 201 | 0.0 | 0.0 | 0.00 | 0.00 | 0.00 | 63 | 1014.2 |
| 20260901232004 | 31 | 201 | 1.6 | 3.2 | 0.00 | 0.00 | 0.00 | 64 | 1014.3 |
| 20260901231504 | 32 | 201 | 1.6 | 3.2 | 0.00 | 0.00 | 0.00 | 63 | 1014.3 |
| 20260901231004 | 32 | 201 | 0.0 | 1.6 | 0.00 | 0.00 | 0.00 | 63 | 1014.3 |
| 20260901230505 | 32 | 201 | 0.0 | 0.0 | 0.00 | 0.00 | 0.00 | 63 | 1014.3 |
| 20260901230004 | 32 | 201 | 0.0 | 1.6 | 0.00 | 0.00 | 0.00 | 63 | 1014.3 |
| 20260901225505 | 32 | 201 | 0.0 | 1.6 | 0.00 | 0.00 | 0.00 | 63 | 1014.3 |
| 20260901225004 | 32 | 201 | 1.6 | 3.2 | 0.00 | 0.00 | 0.00 | 62 | 1014.3 |
| 20260901224504 | 32 | 201 | 0.0 | 3.2 | 0.00 | 0.00 | 0.00 | 62 | 1014.3 |
| 20260901223505 | 32 | 189 | 0.0 | 3.2 | 0.00 | 0.00 | 0.00 | 61 | 1014.3 |
| 20260901223006 | 32 | 189 | 0.0 | 3.2 | 0.00 | 0.00 | 0.00 | 63 | 1014.3 |
| 20260901222505 | 32 | 189 | 1.6 | 4.8 | 0.00 | 0.00 | 0.00 | 62 | 1014.2 |
| 20260901222004 | 32 | 203 | 1.6 | 4.8 | 0.00 | 0.00 | 0.00 | 61 | 1014.3 |
| 20260901221505 | 32 | 236 | 1.6 | 9.7 | 0.00 | 0.00 | 0.00 | 62 | 1014.3 |
| 20260901220504 | 32 | 179 | 0.0 | 4.8 | 0.00 | 0.00 | 0.00 | 61 | 1014.3 |
| 20260901220004 | 32 | 170 | 3.2 | 8.0 | 0.00 | 0.00 | 0.00 | 60 | 1014.2 |
| 20260901215504 | 32 | 243 | 3.2 | 9.7 | 0.00 | 0.00 | 0.00 | 59 | 1014.2 |
| 20260901215005 | 33 | 209 | 1.6 | 4.8 | 0.00 | 0.00 | 0.00 | 60 | 1014.1 |
| 20260901214004 | 32 | 227 | 4.8 | 8.0 | 0.00 | 0.00 | 0.00 | 59 | 1014.2 |
| 20260901213504 | 32 | 217 | 6.4 | 11.3 | 0.00 | 0.00 | 0.00 | 59 | 1014.2 |
| 20260901213005 | 32 | 223 | 4.8 | 9.7 | 0.00 | 0.00 | 0.00 | 60 | 1014.2 |
| 20260901212504 | 32 | 171 | 1.6 | 4.8 | 0.00 | 0.00 | 0.00 | 61 | 1014.2 |
| 20260901212004 | 32 | 223 | 3.2 | 9.7 | 0.00 | 0.00 | 0.00 | 60 | 1014.2 |
| 20260901211004 | 32 | 251 | 4.8 | 16.1 | 0.00 | 0.00 | 0.00 | 59 | 1014.3 |
| 20260901210505 | 32 | 213 | 6.4 | 12.9 | 0.00 | 0.00 | 0.00 | 59 | 1014.3 |
| 20260901210004 | 32 | 269 | 6.4 | 16.1 | 0.00 | 0.00 | 0.00 | 60 | 1014.3 |
| 20260901205504 | 32 | 196 | 4.8 | 12.9 | 0.00 | 0.00 | 0.00 | 61 | 1014.3 |
| 20260901205004 | 32 | 170 | 4.8 | 11.3 | 0.00 | 0.00 | 0.00 | 60 | 1014.3 |
| 20260901204004 | 32 | 210 | 3.2 | 14.5 | 0.00 | 0.00 | 0.00 | 61 | 1014.4 |
| 20260901203504 | 32 | 191 | 6.4 | 11.3 | 0.00 | 0.00 | 0.00 | 60 | 1014.4 |
| 20260901203004 | 32 | 246 | 4.8 | 12.9 | 0.00 | 0.00 | 0.00 | 61 | 1014.4 |
| 20260901202504 | 32 | 188 | 4.8 | 9.7 | 0.00 | 0.00 | 0.00 | 62 | 1014.4 |
| 20260901202004 | 32 | 197 | 3.2 | 12.9 | 0.00 | 0.00 | 0.00 | 61 | 1014.5 |
| 20260901201505 | 32 | 181 | 8.0 | 16.1 | 0.00 | 0.00 | 0.00 | 60 | 1014.4 |
| 20260901201004 | 32 | 248 | 8.0 | 19.3 | 0.00 | 0.00 | 0.00 | 61 | 1014.5 |
| 20260901200504 | 32 | 189 | 8.0 | 12.9 | 0.00 | 0.00 | 0.00 | 61 | 1014.4 |
| 20260901200004 | 32 | 170 | 8.0 | 16.1 | 0.00 | 0.00 | 0.00 | 61 | 1014.4 |